TimeMDT,TemperatureF,Dew PointF,Humidity,Sea Level PressureIn,VisibilityMPH,Wind Direction,Wind SpeedMPH,Gust SpeedMPH,PrecipitationIn,Events,Conditions,WindDirDegrees,DateUTC
12:53 AM,33.1,27.0,78,30.25,10.0,SSE,8.1,-,N/A,,Clear,150,2011-10-31 06:53:00
1:53 AM,34.0,26.1,73,30.24,10.0,SSE,9.2,-,N/A,,Clear,160,2011-10-31 07:53:00
2:53 AM,32.0,25.0,75,30.24,10.0,SSE,6.9,-,N/A,,Clear,150,2011-10-31 08:53:00
3:53 AM,32.0,25.0,75,30.22,10.0,SSE,5.8,-,N/A,,Clear,150,2011-10-31 09:53:00
5:53 AM,30.0,24.1,79,30.22,10.0,South,4.6,-,N/A,,Clear,180,2011-10-31 11:53:00
6:53 AM,30.0,24.1,79,30.24,10.0,South,5.8,-,N/A,,Clear,170,2011-10-31 12:53:00
7:53 AM,28.9,24.1,82,30.25,10.0,SE,5.8,-,N/A,,Clear,140,2011-10-31 13:53:00
8:53 AM,35.1,26.1,70,30.24,10.0,SSE,5.8,-,N/A,,Clear,160,2011-10-31 14:53:00
9:53 AM,44.1,28.0,53,30.22,10.0,Calm,Calm,-,N/A,,Clear,0,2011-10-31 15:53:00
10:53 AM,48.0,27.0,44,30.19,10.0,Calm,Calm,-,N/A,,Clear,0,2011-10-31 16:53:00
11:53 AM,55.0,28.0,35,30.15,10.0,North,3.5,-,N/A,,Clear,350,2011-10-31 17:53:00
12:53 PM,57.0,30.0,36,30.12,10.0,North,5.8,-,N/A,,Clear,360,2011-10-31 18:53:00
1:53 PM,60.1,28.9,31,30.06,10.0,Variable,4.6,-,N/A,,Clear,0,2011-10-31 19:53:00
2:53 PM,60.1,30.0,32,30.04,10.0,NNW,5.8,-,N/A,,Clear,340,2011-10-31 20:53:00
4:53 PM,61.0,28.9,30,30.02,10.0,NNW,8.1,-,N/A,,Clear,340,2011-10-31 22:53:00
5:53 PM,57.0,28.0,33,30.04,10.0,NNW,5.8,-,N/A,,Clear,340,2011-10-31 23:53:00
6:53 PM,52.0,28.9,41,30.07,10.0,Calm,Calm,-,N/A,,Clear,0,2011-11-01 00:53:00
7:53 PM,44.1,30.9,60,30.12,10.0,SE,4.6,-,N/A,,Clear,130,2011-11-01 01:53:00
9:53 PM,39.9,30.0,68,30.07,10.0,SSE,8.1,-,N/A,,Clear,150,2011-11-01 03:53:00
10:53 PM,37.9,28.9,70,30.06,10.0,Calm,Calm,-,N/A,,Clear,0,2011-11-01 04:53:00
11:53 PM,37.9,28.0,68,30.02,10.0,ESE,5.8,-,N/A,,Clear,120,2011-11-01 05:53:00